YAOGAN-39 02A

导读

YAOGAN-39 02A是中国于2023年9月17日08:00发射的遥感卫星,归入遥感卫星系列。中国遥感卫星主要用于国土普查、环境监测、灾害预警等领域,服务于国民经济建设,同时开展空间科学实验,YAOGAN-39 02A也将延续相关任务,为各领域应用提供可靠空间数据支撑。

Basic Information
目录编号:
57886
目录名称:
YAOGAN-39 02A
国际标识:
2023-145A
轨道中心:
EARTH
卫星名称:
YAOGAN-39 02A
卫星全名:
--
卫星状态:
在轨 (已飞行1084 天)
发射日期:
2023-09-17 UTC
国别 :
中国 (CN)
星等 :
--
Orbit Information
数据来源 国际轨道数据 AOE轨道数据
星历时间 2026-09-05T05:50:17+0800
21小时前
查看轨道信息
2026-09-05T02:00:00+0800
1天前
查看轨道信息
半长轴 6874.613km 6874.613km
偏心率 0.0003405 0.0003531
轨道倾角 35.003° 35.002°
近地点辐角 312.964° 307.571°
升交点赤经 59.104° 60.110°
平近点角 47.079° 254.161°
近地点 494.135km 494.048km
远地点 498.817km 498.904km
周期 94.544分钟 94.544分钟
每日圈数 15.231069 15.231071
Detailed Information
使用方式:
暂无
2D Orbit Map
3D Orbit Map
Orbit Altitude Analysis Chart
Orbit Inclination Analysis Chart
Orbit Comprehensive Analysis Chart
View Comprehensive Chart
Conjunction Data List
Event ID Objects TCA Miss Dist (km) Collision Risk Probability Collision Risk Index (CRI) Action
CDM_260829-201005-313005-788622
2026-08-29T
20:10:14+0000
2.245 km
极远距离
2.07315E-6 低风险 0.41
CDM_260906-122305-788606-238824
2026-09-06T
12:23:14+0000
2.159 km
极远距离
1.84224E-6 低风险 0.4
CDM_260907-053105-378305-788621
2026-09-07T
05:31:28+0000
2.301 km
极远距离
1.606369E-6 低风险 0.39